Location: Los Angeles
(34.0542°N, 118.2411°W)
Time: 12:01:02
(UTC-07:00)

Daily predictions for brighter satellites

Satellite Brightness Start Highest point End
(mag) Time Altitude Azimuth Time Altitude Azimuth Time Altitude Azimuth
Cosmos 2034 Rocket 4.1 19:45:30 10° S 19:51:41 88° ESE 19:57:53 10° N
CENTAUR R/B 3.8 19:50:53 10° SW 19:56:34 46° NW 20:02:58 10° NNE
Gblst 52 Del rocket 4.5 19:51:47 10° NW 19:57:37 58° NE 20:03:02 10° ESE
Resurs 1-3 4.3 19:53:51 10° SE 19:57:52 36° ENE 20:01:54 10° N
Cosmos 1151 Rocket 4.2 19:55:07 10° SSW 19:59:18 48° W 20:03:30 10° N
Cosmos 1869 Rocket 4.2 19:56:46 10° NNE 20:00:57 37° E 20:05:04 10° SSE
Abrixas rocket 4.4 19:58:25 10° W 20:01:18 27° NNW 20:04:10 10° NNE
Cosmos 2360 4.2 19:58:27 10° SSW 20:04:09 77° ESE 20:09:53 10° NNE
Atlas Centaur 2 3.4 20:00:34 10° SW 20:06:31 35° SSE 20:13:33 10° E
SL-8 R/B 3.7 20:02:15 10° NW 20:07:06 89° ENE 20:11:54 10° SE
Cosmos 1455 2.1 20:06:09 10° S 20:09:55 67° E 20:13:41 10° NNE
BREEZE-M DEB (TANK) 3.5 20:07:35 10° WNW 20:10:04 44° SW 20:15:12 10° SE
Helios 1A 4.0 20:13:13 10° SE 20:16:47 28° ENE 20:20:26 10° NNE
Molniya-1 3.9 20:17:40 10° SW 20:19:11 35° NW 20:20:54 10° NNE
Cosmos 1869 3.4 20:19:42 10° SSE 20:23:30 49° E 20:27:18 10° NNE
DELTA 2 R/B (1) 3.6 20:20:15 10° WNW 20:25:54 88° SSW 20:30:21 17° ESE
CZ-4B DEB 4.2 20:26:45 18° E 20:27:36 20° ENE 20:29:56 10° NNE
GRACE-1 3.7 20:25:42 10° N 20:28:28 78° E 20:31:10 10° S
GRACE-2 3.7 20:26:06 10° N 20:28:51 77° E 20:31:34 10° S
Resurs 01 Rocket 1.8 20:24:37 10° S 20:29:03 79° WSW 20:33:31 10° NNW
Spot 2 Rocket 3.5 20:24:33 10° SSE 20:29:39 89° W 20:34:46 10° NNW
OAO 3 Rocket 3.2 20:25:11 10° W 20:30:04 86° N 20:34:28 13° E
BREEZE-M DEB (TANK) 3.7 20:27:06 10° WSW 20:30:57 85° NW 20:38:21 10° NE
Cosmos 1892 3.3 20:27:56 10° NNW 20:31:41 59° W 20:35:25 10° S
Cosmos 1900 4.4 20:27:11 10° NNW 20:32:19 86° ENE 20:36:57 13° SSE
Cosmos 1400 Rocket 3.8 20:31:20 10° NNW 20:35:07 48° W 20:38:54 10° S
Meteor 1-29 3.2 20:33:52 10° NNE 20:37:12 44° E 20:40:29 10° S
H-2A R/B 3.9 20:34:06 10° S 20:37:51 44° W 20:41:35 10° NNW
CZ-3B DEB 2.3 20:42:57 10° WNW 20:46:06 25° WSW 20:47:29 16° SSW
Cosmos 2263 Rocket 3.3 20:43:34 10° N 20:48:09 26° ENE 20:50:08 21° E
Cosmos 220 Rocket 4.4 20:43:56 10° N 20:48:14 46° ENE 20:50:11 28° SE
Cosmos 1933 4.0 20:47:17 28° SE 20:48:24 33° E 20:52:02 10° NNE
Cosmos 1315 Rocket 3.1 20:44:52 10° NNW 20:48:55 68° W 20:52:54 10° S
Cosmos 2322 Rocket 2.1 20:43:55 10° SSW 20:49:30 82° ESE 20:55:08 10° NNE
Envisat 3.1 20:45:59 18° SSE 20:49:36 59° ENE 20:54:35 10° N
OTV 4 2.0 20:48:18 10° W 20:50:41 23° SSW 20:51:16 22° S
Cosmos 2142 Rocket 4.4 20:45:11 10° S 20:51:18 89° W 20:57:29 10° N
Cosmos 2360 Rocket 2.7 20:57:15 23° SSE 20:59:57 35° ESE 21:05:02 10° NE
Cosmos 1980 Rocket 4.5 20:56:14 10° WSW 21:00:57 27° WNW 21:05:43 10° N
Cosmos 1825 2.1 20:57:16 10° N 21:01:02 66° E 21:02:11 41° SSE
GENESIS II 4.2 20:57:58 10° SSW 21:02:00 85° WNW 21:06:05 10° NNE
USA 186 3.5 21:05:34 16° SW 21:07:03 25° W 21:09:26 10° NW
Cosmos 2322 4.2 21:07:11 34° ESE 21:07:59 35° ESE 21:13:07 10° NE
SEDSat Delta rocket 3.7 21:02:58 10° WSW 21:08:15 61° S 21:10:43 34° ESE
USA 234 3.4 21:10:15 31° ESE 21:13:32 65° NE 21:20:00 10° NW
Cosmos 2026 Rocket 3.9 21:08:07 10° N 21:14:21 85° W 21:18:58 19° S
Cosmos 1862 3.2 21:11:35 10° N 21:15:36 68° E 21:16:03 61° SE
SL-16 R/B 2.8 21:11:45 10° SW 21:17:19 58° WNW 21:22:54 10° NNE
Helios 1B rocket 3.9 21:14:44 10° N 21:18:32 37° WNW 21:22:19 10° SW
ERBS 2.3 21:16:07 10° NW 21:19:24 78° N 21:19:24 78° N
Lacrosse 4 Rocket 1.4 21:16:35 10° NNW 21:20:56 74° ENE 21:21:30 63° ESE
Cosmos 1939 Rocket 3.0 21:20:15 42° S 21:21:31 71° W 21:25:32 10° NNW
ERS-1 Rocket 3.0 21:22:09 49° ESE 21:23:05 58° ENE 21:28:00 10° N
Cosmos 1733 Rocket 3.1 21:23:01 10° N 21:27:29 82° W 21:28:30 53° S
ATLAS 5 CENTAUR R/B 3.4 21:22:31 10° NNW 21:27:58 33° NE 21:29:19 30° ENE
Cosmos 1862 Rocket 4.0 21:27:08 22° SSW 21:29:56 62° W 21:34:23 10° N
STPSAT 2 (USA 217) 4.5 21:27:43 10° NNW 21:32:19 71° ENE 21:32:26 71° E
ARGOS 3.8 21:34:29 37° ENE 21:34:29 37° ENE 21:39:17 10° N
Cosmos 1408 4.0 21:32:09 10° NNW 21:35:32 34° W 21:36:27 29° SW
SeaSat 1 3.5 21:36:49 31° NE 21:36:49 31° NE 21:41:00 10° N
Cosmos 1655 Rocket 4.4 21:35:34 10° NNW 21:41:52 63° W 21:45:34 26° SSW
Meteor 1-26 Rocket 4.1 21:40:49 56° SSE 21:42:01 77° E 21:47:46 10° NNE
Terra 4.1 21:48:57 12° NE 21:48:57 12° NE 21:49:47 10° NNE
Cosmos 1703 Rocket 4.4 21:51:18 43° NNE 21:51:18 43° NNE 21:54:21 10° N
Cosmos 1844 Rocket 4.4 21:47:34 10° NNE 21:50:44 18° NE 21:50:44 18° NE
Atlas Centaur 2 2.9 21:48:24 10° WSW 21:55:42 63° S 21:56:51 57° SE
USA 229 DEB 3.5 21:49:34 10° SSW 21:56:22 83° ESE 22:03:18 10° NNE
USA 229 3.5 21:49:40 10° SSW 21:56:28 83° ESE 22:03:23 10° NNE
Cosmos 2266 Rocket 3.8 21:56:10 10° N 22:02:28 79° E 22:02:49 76° ESE
BREEZE-M DEB (TANK) 4.1 21:47:23 10° NW 22:04:55 86° SW 22:05:43 71° SE
Nimbus 7 Rocket 4.3 22:02:12 10° NNE 22:08:01 82° ENE 22:08:01 82° ENE
MetOp-A 4.2 22:09:59 70° W 22:09:59 70° W 22:15:13 10° NNW
H-2A R/B 3.1 22:14:04 36° NNE 22:14:04 36° NNE 22:17:12 10° N
MOS 1-B Rocket 3.9 22:13:24 79° NE 22:13:24 79° NE 22:18:53 10° N
OAO 3 Rocket 4.1 22:08:48 10° W 22:12:17 46° WNW 22:12:17 46° WNW
Cosmos 1867 4.1 22:09:03 10° NNW 22:13:26 51° NNE 22:13:26 51° NNE
SPOT 5 3.7 22:22:39 48° NW 22:22:39 48° NW 22:26:09 10° NNW
Meteor 1-14 Rocket 4.4 22:15:50 10° NNW 22:20:56 70° NW 22:20:56 70° NW
Cosmos 968 Rocket 4.2 22:22:57 10° NNW 22:26:54 50° NW 22:26:54 50° NW
Milstar 3 3.7 22:21:57 10° W 22:26:44 34° SW 22:26:44 34° SW
COSMOS 2428 3.7 22:34:03 40° NNE 22:34:03 40° NNE 22:37:37 10° NNE
Cosmos 2263 Rocket 3.3 22:27:02 10° NW 22:31:52 36° W 22:31:52 36° W
H-2A R/B 4.5 22:38:13 18° N 22:38:13 18° N 22:39:22 10° N
Cosmos 2360 Rocket 4.0 22:39:12 10° WSW 22:43:56 27° WNW 22:48:42 10° N
Cosmos 2333 Rocket 4.2 23:16:06 22° NNE 23:16:06 22° NNE 23:18:03 10° NNE
ATLAS 5 CENTAUR R/B 3.7 23:06:58 10° NW 23:10:52 34° WNW 23:10:52 34° WNW
Cosmos 2237 Rocket 4.4 23:23:19 17° NNE 23:23:19 17° NNE 23:24:35 10° NNE
Terra 4.4 23:27:49 18° NNW 23:27:49 18° NNW 23:29:06 10° NNW
Cosmos 2278 Rocket 4.1 23:21:25 10° N 23:23:48 25° N 23:23:48 25° N
Cosmos 2219 Rocket 4.3 23:51:56 22° NNW 23:51:56 22° NNW 23:54:26 10° N
